Hourly Data Report for March 02, 2015

All times are specified in Local Standard Time (LST). Add 1 hour to adjust for Daylight Saving Time where and when it is observed.

MIRAMICHI RCS
NEW BRUNSWICK

47°00'34.000" N
65°27'54.000" W
33.00 m
8100989
71744
ACQ

Download Data

Hourly Data (March 2015)
Hourly Data Report for March 2, 2015
TIME Temp Definition
°C
Dew Point Definition
°C
Rel Hum Definition
%
Wind Dir Definition
10's deg

Wind Spd Definition
km/h
Visibility Definition
km
Stn Press Definition
kPa
Hmdx Definition


Wind Chill Definition


Weather Definition


00:00 -8.7 -12.1 77 0 1   101.60   -9 LegendNANA
01:00 -8.1 -10.5 82 34 2   101.48   -9 LegendNANA
02:00 -8.1 -9.8 88 33 2   101.36   -9 LegendNANA
03:00 -7.8 -9.3 89 2 1   101.22   -8 LegendNANA
04:00 -8.0 -9.4 89 11 5   101.04   -11 LegendNANA
05:00 -8.2 -9.6 90 0 1   100.88   -9 LegendNANA
06:00 -8.0 -9.4 90 32 1   100.75   -9 LegendNANA
07:00 -8.3 -9.9 89 0 1   100.64   -9 LegendNANA
08:00 -9.9 -11.4 89 27 2   100.52   -11 LegendNANA
09:00 -6.5 -8.8 84 29 8   100.43   -10 LegendNANA
10:00 -4.2 -8.0 75 26 4   100.32   -6 LegendNANA
11:00 -4.2 -7.9 76 23 4   100.19   -6 LegendNANA
12:00 -3.4 -7.9 71 28 6   100.06   -6 LegendNANA
13:00 -3.4 -7.3 74 28 8   99.92   -7 LegendNANA
14:00 -1.4 -7.2 65 32 5   99.77   -3 LegendNANA
15:00 -1.9 -6.0 73 30 9   99.74   -5 LegendNANA
16:00 -2.4 -9.6 57 31 17   99.75   -8 LegendNANA
17:00 -3.2 -8.7 66 31 14   99.77   -8 LegendNANA
18:00 -4.0 -9.3 67 30 22   99.86   -11 LegendNANA
19:00 -4.7 -11.0 61 31 16   99.99   -10 LegendNANA
20:00 -5.3 -10.9 65 29 14   100.09   -11 LegendNANA
21:00 -5.9 -10.4 71 30 11   100.11   -11 LegendNANA
22:00 -6.1 -10.7 69 29 18   100.14   -13 LegendNANA
23:00 -6.2 -11.9 64 30 19   100.19   -13 LegendNANA

Notes on Data Quality.

Legend

  • E = Estimated
  • M = Missing
  • NA = Not Available
Date modified: